TimePST,TemperatureF,Dew PointF,Humidity,Sea Level PressureIn,VisibilityMPH,Wind Direction,Wind SpeedMPH,Gust SpeedMPH,PrecipitationIn,Events,Conditions,WindDirDegrees,DateUTC
12:56 AM,57.9,33.1,39,29.81,10.0,Calm,Calm,-,N/A,,Clear,0,2013-03-07 08:56:00
1:56 AM,55.0,33.1,43,29.81,10.0,WSW,6.9,-,N/A,,Clear,240,2013-03-07 09:56:00
2:56 AM,55.9,34.0,44,29.79,10.0,WSW,6.9,-,N/A,,Clear,250,2013-03-07 10:56:00
3:56 AM,55.9,34.0,44,29.81,10.0,Calm,Calm,-,N/A,,Clear,0,2013-03-07 11:56:00
4:56 AM,51.1,33.1,50,29.83,10.0,WNW,3.5,-,N/A,,Clear,290,2013-03-07 12:56:00
5:56 AM,50.0,33.1,52,29.86,10.0,Calm,Calm,-,N/A,,Clear,0,2013-03-07 13:56:00
6:56 AM,55.0,33.1,43,29.88,10.0,South,3.5,-,N/A,,Clear,180,2013-03-07 14:56:00
7:56 AM,57.9,34.0,41,29.88,10.0,Calm,Calm,-,N/A,,Clear,0,2013-03-07 15:56:00
8:56 AM,61.0,34.0,36,29.87,10.0,SE,4.6,-,N/A,,Clear,130,2013-03-07 16:56:00
9:56 AM,66.0,35.1,32,29.87,10.0,Variable,3.5,-,N/A,,Clear,0,2013-03-07 17:56:00
10:56 AM,69.1,35.1,29,29.85,10.0,Variable,5.8,-,N/A,,Clear,0,2013-03-07 18:56:00
12:56 PM,70.0,33.1,26,29.80,10.0,SSW,10.4,20.7,N/A,,Clear,210,2013-03-07 20:56:00
1:56 PM,70.0,33.1,26,29.80,10.0,SSW,15.0,21.9,N/A,,Clear,200,2013-03-07 21:56:00
2:56 PM,70.0,32.0,25,29.80,10.0,SW,11.5,-,N/A,,Clear,220,2013-03-07 22:56:00
3:56 PM,69.1,32.0,25,29.78,10.0,SW,11.5,-,N/A,,Clear,230,2013-03-07 23:56:00
4:56 PM,69.1,34.0,27,29.78,10.0,West,8.1,-,N/A,,Clear,260,2013-03-08 00:56:00
5:56 PM,66.9,35.1,31,29.79,10.0,WSW,11.5,-,N/A,,Clear,250,2013-03-08 01:56:00
6:56 PM,66.0,36.0,33,29.79,10.0,WSW,9.2,-,N/A,,Clear,250,2013-03-08 02:56:00
7:56 PM,64.9,37.9,37,29.79,10.0,SW,4.6,-,N/A,,Clear,220,2013-03-08 03:56:00
8:56 PM,64.0,37.9,38,29.78,10.0,WSW,4.6,-,N/A,,Clear,240,2013-03-08 04:56:00
9:56 PM,62.1,37.9,41,29.78,10.0,WNW,5.8,-,N/A,,Clear,300,2013-03-08 05:56:00
10:56 PM,62.1,37.0,39,29.76,10.0,West,4.6,-,N/A,,Clear,270,2013-03-08 06:56:00
11:56 PM,61.0,35.1,38,29.75,10.0,West,9.2,-,N/A,,Clear,260,2013-03-08 07:56:00